Tracking 25995 objects as of 19-Aug-2022
HD Live streaming from Space Station
objects crossing your sky now

STARLINK-4126

Track STARLINK-4126 now!
10-day predictions
STARLINK-4126 is classified as:


NORAD ID: 52867
Int'l Code: 2022-062AP
Perigee: 423.1 km
Apogee: 425.0 km
Inclination: 53.2 °
Period: 92.9 minutes
Semi major axis: 6795 km
RCS: Unknown
Launch date: June 17, 2022
Source: United States (US)
Launch site: AIR FORCE EASTERN TEST RANGE (AFETR)
aabbcc
Your satellite tracking list
Your tracking list is empty




NASA's NSSDC Master Catalog

Two Line Element Set (TLE):
1 52867U 22062AP  22230.91667824 -.00020360  00000-0 -35109-3 0  9996
2 52867  53.2169  97.5338 0001344  55.7668 301.8838 15.49933576 10307
Source of the keplerian elements: AFSPC